TimeCST,TemperatureF,Dew PointF,Humidity,Sea Level PressureIn,VisibilityMPH,Wind Direction,Wind SpeedMPH,Gust SpeedMPH,PrecipitationIn,Events,Conditions,WindDirDegrees,DateUTC
12:53 AM,54.0,39.9,59,29.84,10.0,South,12.7,-,N/A,,Clear,170,2012-11-22 06:53:00
1:53 AM,50.0,39.0,66,29.82,10.0,SSE,5.8,-,N/A,,Clear,150,2012-11-22 07:53:00
2:53 AM,55.0,39.9,57,29.80,10.0,South,12.7,20.7,N/A,,Clear,180,2012-11-22 08:53:00
3:53 AM,53.1,39.9,61,29.78,10.0,South,11.5,-,N/A,,Clear,180,2012-11-22 09:53:00
4:53 AM,51.1,39.9,66,29.78,10.0,SSE,4.6,-,N/A,,Clear,150,2012-11-22 10:53:00
5:53 AM,48.0,39.0,71,29.76,10.0,SE,5.8,-,N/A,,Clear,130,2012-11-22 11:53:00
6:53 AM,46.9,39.0,74,29.75,10.0,SSE,5.8,-,N/A,,Clear,150,2012-11-22 12:53:00
7:53 AM,50.0,41.0,71,29.75,10.0,South,10.4,-,N/A,,Clear,180,2012-11-22 13:53:00
8:53 AM,55.9,43.0,62,29.75,10.0,SSW,13.8,23.0,N/A,,Clear,200,2012-11-22 14:53:00
9:53 AM,57.9,44.1,60,29.74,10.0,SSW,15.0,24.2,N/A,,Clear,210,2012-11-22 15:53:00
10:53 AM,61.0,46.9,60,29.74,10.0,SW,19.6,29.9,N/A,,Clear,230,2012-11-22 16:53:00
11:53 AM,63.0,46.9,56,29.71,10.0,WSW,18.4,24.2,N/A,,Clear,240,2012-11-22 17:53:00
12:53 PM,66.0,45.0,47,29.72,10.0,West,18.4,-,N/A,,Clear,260,2012-11-22 18:53:00
1:53 PM,64.0,37.9,38,29.76,10.0,WNW,21.9,31.1,N/A,,Clear,290,2012-11-22 19:53:00
2:53 PM,61.0,37.9,42,29.80,10.0,NW,27.6,35.7,N/A,,Clear,310,2012-11-22 20:53:00
3:53 PM,52.0,37.9,59,29.87,10.0,WNW,27.6,40.3,N/A,,Clear,300,2012-11-22 21:53:00
4:53 PM,48.0,35.1,61,29.94,10.0,NW,21.9,28.8,N/A,,Clear,310,2012-11-22 22:53:00
5:53 PM,46.0,34.0,63,30.01,10.0,NW,29.9,35.7,N/A,,Clear,310,2012-11-22 23:53:00
6:19 PM,44.6,33.8,66,30.03,10.0,NNW,20.7,32.2,N/A,,Mostly Cloudy,330,2012-11-23 00:19:00
6:51 PM,42.8,33.8,70,30.04,10.0,NW,16.1,24.2,N/A,,Scattered Clouds,310,2012-11-23 00:51:00
6:53 PM,42.1,33.1,70,30.05,10.0,NW,17.3,24.2,N/A,,Partly Cloudy,310,2012-11-23 00:53:00
7:53 PM,42.1,32.0,67,30.07,10.0,WNW,19.6,28.8,N/A,,Clear,300,2012-11-23 01:53:00
8:53 PM,42.1,30.0,62,30.09,10.0,WNW,25.3,34.5,N/A,,Scattered Clouds,300,2012-11-23 02:53:00
9:53 PM,39.9,27.0,60,30.12,10.0,WNW,23.0,34.5,N/A,,Partly Cloudy,300,2012-11-23 03:53:00
10:53 PM,37.0,25.0,62,30.12,10.0,WNW,18.4,25.3,N/A,,Clear,300,2012-11-23 04:53:00
11:53 PM,36.0,21.9,57,30.12,10.0,NW,17.3,28.8,N/A,,Scattered Clouds,310,2012-11-23 05:53:00